UDYZUDSG

Guest
Details From UDYZ - ZVARTNOTS
To UDSG - GYUMRI
Flight Number -
Tags generated
Created
Modified
Stats Distance 44 nm / 82 km
Max Altitude 200 ft / 61 m
Waypoints 3
Social Downloads 27
Likes 0
Share

Download

Looking for another format? Having issues loading an existing format? Contact us
Advertisement - Login to hide

Notes

Basic altitude profile: - Ascent Rate: 2500ft/min - Ascent Speed: 250kts - Cruise Altitude: 38000ft - Cruise Speed: 420kts - Descent Rate: 1500ft/min - Descent Speed: 250kts Options: - Use NATs: yes - Use PACOTS: yes - Use low airways: yes - Use high airways: yes

Route

UDYZ GRM UDSG

ID Type Via Altitude (ft/m) Position (lat/lon) Dist (leg/tot) Name
O UDYZ APT - 0 / 0 40.14727 / 44.39588 - / 0 nm ZVARTNOTS
GRM VOR - 200 / 61 40.72941 / 43.84724 43 / 43 nm GYUMRI VOR-DME
O UDSG APT - 0 / 0 40.75037 / 43.85934 1 / 44 nm GYUMRI

Altitude Profile

Advertisement - Login to hide

UDYZ

Details ICAO UDYZ (EVN)
Name Yerevan Zvartnots Airport
Region Armenia
Timezone Asia/Yerevan (UTC+4.0)
Stats Elevation 2,837 ft / 865 m (AMSL)
Location 40.147300° 44.395900°
Runways 1
Magnetic Variation 6.700° E

METAR

UDYZ 211800Z 03012KT 9999 FEW043CB 27/11 Q1010 TEMPO 04016G26KT -TSRA

Decode

TAF

TAF UDYZ 211700Z 2118/2218 04006KT 9999 FEW040 TEMPO 2118/2124 VRB16G26KT -TSRA SCT040CB

Decode

Departure Runways

ID Width Length Bearing (true/mag) Surface Threshold Overrun Markings Lighting
09 184 ft / 56 m 12,590 ft / 3,837 m 89.66° / 82.96° ASPHALT 0 ft / 0 m 0 ft / 0 m PREC-APP CENTERLINE EDGE THRESHOLD ALSF-II TDZ
27 184 ft / 56 m 12,590 ft / 3,837 m 269.69° / 262.99° ASPHALT 0 ft / 0 m 0 ft / 0 m PREC-APP CENTERLINE EDGE THRESHOLD

UDSG

Details ICAO UDSG (LWN)
Name Shirak
Region Armenia
Timezone Asia/Yerevan (UTC+4.0)
Stats Elevation 5,000 ft / 1,524 m (AMSL)
Location 40.750500° 43.859300°
Runways 1
Magnetic Variation 6.877° E

METAR

UDSG 211800Z VRB01KT 9999 FEW049 17/09 Q1018 NOSIG

Decode

TAF

TAF UDSG 211658Z 2118/2218 36006KT 9999 FEW050 TEMPO 2118/2124 03016G26KT SCT040CB

Decode

Destination Runways

ID Width Length Bearing (true/mag) Surface Threshold Overrun Markings Lighting
02 147 ft / 45 m 10,532 ft / 3,210 m 23.45° / 16.57° ASPHALT 0 ft / 0 m 118 ft / 36 m PREC-APP EDGE THRESHOLD MALSR TDZ
20 147 ft / 45 m 10,532 ft / 3,210 m 203.46° / 196.58° ASPHALT 0 ft / 0 m 118 ft / 36 m PREC-APP EDGE THRESHOLD

Popular Alternatives